Mar del Plata, Argentina

11:30 AM America en Septiembre 22, 2018 (GMT +0000)
Mar Del Plata International

Tiempo Historia de SAZM - Marzo, 2018

Change the Weather History Date:

Miércoles, Marzo 14, 2018

  Actual Average Record
Temperature  
Temperatura media 62 ° F -  
Temperatura máxima 80 ° F 72 ° F 82 ° F (2002)
Temperatura mínima 44 ° F 51 ° F 36 ° F (2013)
Degree Days  
Grados día de calefacción 3    
Growing Degree Days 12 (Base 50)    
Moisture  
Punto de rocío 46 ° F    
Average Humidity 60    
Maximum Humidity 93    
Minimum Humidity 14    
Precipitación  
Precipitación 0.16 pul 0.12 pul - ()
Presión al nivel del mar  
Presión al nivel del mar 29.70 pul    
Viento  
Velocidad del viento 5 mph ()    
Velocidad máxima del viento 17 mph    
Max Gust Speed -    
Visibilidad 6.0 Millas    
Eventos Tormenta    
Averages and records for this station are not official NWS values.
T = Trace of Precipitation, MM = Missing Value Source: Averaged Metar Reports

Daily Weather History Graph

Daily Weather History Graph

Search for Another Location

Airport or City:

Astronomía

Mar. 14, 2018 Salida Puesta
Hora real 6:47 AM -03 7:10 PM -03
Crepúsculo civil 6:21 AM -03 7:37 PM -03
Crepúsculo náutico 5:50 AM -03 8:07 PM -03
Crepúsculo astronómico 5:18 AM -03 8:39 PM -03
Luna 3:45 AM -03 (3/14) 5:49 PM -03 (3/14)
Horas de luz 13h 15m
Horas de luz
12h 23m
Creciente menguante, 9% of the Moon is Illuminated
Mar 14
Creciente menguante
Mar 17
Nueva
Mar 24
Cuarto creciente
Mar 31
Luna llena
Abr 8
Cuarto menguante

Hourly Weather History & Observations

Hora (-03) Temp. Vientos helados Punto de rocío Humedad Presión Visibilidad Wind Dir Velocidad del viento Velocidad de ráfagas Precip Eventos Condiciones
12:00 AM 51 ° F - 43 ° F 66% 29.83 pul 6 mi Sin viento Sin viento - -  
12:00 AM 51.8 ° F - 44.6 ° F 76% 29.80 pul - Sin viento Sin viento - N/A   Despejado
1:00 AM 48.2 ° F - 44.6 ° F 87% 29.83 pul - Sin viento Sin viento - N/A   Despejado
2:00 AM 46.4 ° F - 42.8 ° F 87% 29.80 pul - Sin viento Sin viento - N/A   Despejado
3:00 AM 47 ° F - 43 ° F 80% 29.81 pul 6 mi Sin viento Sin viento - -  
3:00 AM 46.4 ° F - 42.8 ° F 87% 29.80 pul - Sin viento Sin viento - N/A   Despejado
4:00 AM 46.4 ° F 42.9 ° F 44.6 ° F 93% 29.80 pul - NO 6.9 mph - N/A   Despejado
5:00 AM 46.4 ° F 43.5 ° F 42.8 ° F 87% 29.77 pul - NO 5.8 mph - N/A   Despejado
6:00 AM 47 ° F - 45 ° F 89% 29.79 pul 6 mi NNO 4.6 mph - -  
6:00 AM 48.2 ° F - 42.8 ° F 82% 29.77 pul - NO 4.6 mph - N/A   Despejado
7:00 AM 48.2 ° F - 42.8 ° F 82% 29.77 pul - NO 4.6 mph - N/A   Despejado
8:00 AM 50.0 ° F - 46.4 ° F 87% 29.77 pul - NO 5.8 mph - N/A   Despejado
9:00 AM 57 ° F - 50 ° F 70% 29.78 pul 6 mi NO 10.4 mph - -  
9:00 AM 57.2 ° F - 50.0 ° F 77% 29.77 pul - NO 10.4 mph - N/A   Despejado
10:00 AM 62.6 ° F - 51.8 ° F 68% 29.77 pul - NO 12.7 mph - N/A   Despejado
11:00 AM 68.0 ° F - 48.2 ° F 49% 29.74 pul - NO 11.5 mph - N/A   Despejado
12:00 PM 73 ° F - 46 ° F 27% 29.75 pul 6 mi ONO 12.7 mph - -  
12:00 PM 73.4 ° F - 46.4 ° F 38% 29.74 pul - ONO 12.7 mph - N/A   Despejado
1:00 PM 77.0 ° F - 42.8 ° F 29% 29.71 pul - NO 13.8 mph - N/A   Despejado
2:00 PM 77.0 ° F - 39.2 ° F 26% 29.68 pul - NO 10.4 mph - N/A   Despejado
3:00 PM 79 ° F - 38 ° F 14% 29.66 pul 6 mi NO 6.9 mph - -   Nubes dispersas
3:00 PM 78.8 ° F - 37.4 ° F 23% 29.65 pul - NNO 6.9 mph - N/A   Despejado
4:00 PM 78.8 ° F - 37.4 ° F 23% 29.62 pul - NNO 8.1 mph - N/A   Despejado
5:00 PM 80.6 ° F - 37.4 ° F 21% 29.59 pul - NNO 11.5 mph - N/A   Despejado
6:00 PM 79 ° F - 39 ° F 15% 29.60 pul 6 mi Norte 6.9 mph - -   Nubes dispersas
6:00 PM 78.8 ° F - 39.2 ° F 24% 29.59 pul 6.2 mi Norte 6.9 mph - N/A   Parcialmente nublado
7:00 PM 75.2 ° F - 41.0 ° F 29% 29.56 pul 6.2 mi Norte 3.5 mph - N/A   Parcialmente nublado
8:00 PM 66.2 ° F - 60.8 ° F 83% 29.56 pul 5.6 mi NE 5.8 mph - N/A   Desconocido
9:00 PM 65 ° F - 61 ° F 83% 29.58 pul 6 mi NE 6.9 mph - -   Despejado
9:00 PM 64.4 ° F - 60.8 ° F 88% 29.56 pul - NE 6.9 mph - N/A   Despejado
10:00 PM 66.2 ° F - 51.8 ° F 60% 29.59 pul 6.2 mi Norte 9.2 mph - N/A   Muy nublado
11:00 PM 66.2 ° F - 55.4 ° F 68% 29.53 pul 6.2 mi Norte 17.3 mph - N/A   Nublado
11:30 PM 64.4 ° F - 57.2 ° F 77% 29.53 pul 6.2 mi Norte 9.2 mph - N/A Tormenta Tormenta